Regional Weather Roundup
Issued by NWS Upton, NY

Current Version | Previous Version | Text Only | Print | Product List | Glossary On
Versions: 1 2 3 4 5 6 7 8 9 10 11 12 13 14 15 16 17 18 19 20 21 22 23 24 25 26 27 28 29 30 31 32 33 34 35 36 37 38 39 40 41 42 43 44 45 46 47 48 49 50
000 ASUS41 KOKX 250008 RWROKX REGIONAL WEATHER ROUNDUP NATIONAL WEATHER SERVICE NEW YORK NY 800 PM EDT SUN MAY 24 2015 NOTE: "FAIR" INDICATES FEW OR NO CLOUDS BELOW 12,000 FEET WITH NO SIGNIFICANT WEATHER AND/OR OBSTRUCTIONS TO VISIBILITY. NYZ071-072-176-178-NJZ106-104-250100- NEW YORK CITY METRO AREA CITY SKY/WX TMP DP RH WIND PRES REMARKS CENTRAL PARK PTCLDY 71 50 47 CALM 30.26R LAGUARDIA APRT MOCLDY 68 51 54 S12 30.23R KENNEDY INTL MOCLDY 64 50 60 S20G28 30.25S NEWARK/LIBERTY MOCLDY 78 41 26 SW13 30.22S BRNX BOT. GARD N/A 66 52 59 SE3 30.23F TETERBORO PTCLDY 75 47 36 S6 30.21S $$ NYZ177-179-078>081-250100- LONG ISLAND NEW YORK CITY SKY/WX TMP DP RH WIND PRES REMARKS FARMINGDALE CLOUDY 62 49 62 SW17G26 30.26F ISLIP CLOUDY 62 48 60 SW12 30.26S SHIRLEY CLOUDY 62 46 55 SW10 30.28S WESTHAMPTON CLOUDY 59 46 62 SW9 30.29R MONTAUK POINT N/A 61 45 55 SW10G22 30.27F $$ NYZ052-065-067-250100- HUDSON VALLEY CITY SKY/WX TMP DP RH WIND PRES REMARKS WHITE PLAINS MOCLDY 68 50 52 S6 30.23S NEWBURGH PTCLDY 75 43 31 SW6 30.22S MONTGOMERY MOCLDY 68 53 58 CALM 30.20S POUGHKEEPSIE CLOUDY 72 47 40 S3 30.19R ALBANY CLOUDY 73 43 33 W5 30.17S $$ NJZ001-105-106-008-010-013-015-019>022-104-250100- NEW JERSEY CITY SKY/WX TMP DP RH WIND PRES REMARKS NEWARK/LIBERTY MOCLDY 78 41 26 SW13 30.22S TETERBORO PTCLDY 75 47 36 S6 30.21S CALDWELL PTCLDY 77 38 24 SW3 30.23R MORRISTOWN CLOUDY 75 39 27 SW8 30.23R SOMERVILLE PTCLDY 73 42 32 VRB3 30.21S SUSSEX PTCLDY 73 43 33 CALM 30.24R ANDOVER N/A 69 48 47 CALM 30.23S TRENTON CLEAR 74 45 35 SW5 30.24S MILLVILLE CLEAR 66 56 70 SE6 30.28S ATLANTIC CITY CLEAR 64 49 57 S9 30.30R WRIGHTSTOWN CLEAR 70 51 50 S8 30.24R TOMS RIVER CLEAR N/A N/A N/A S9 30.28R BELMAR CLEAR 70 46 43 S13 30.27R $$ PAZ047>061-062-071-250100- EASTERN PENNSYLVANIA CITY SKY/WX TMP DP RH WIND PRES REMARKS PHILADELPHIA PTCLDY 77 41 27 SW9 30.26R ALLENTOWN PTCLDY 75 40 28 SW9 30.23S SCRANTON MOCLDY 75 41 29 SW5 30.23R $$ CTZ002-004>006-009-010-012-RIZ004-006-007-MAZ004-011-015-250100- SOUTHERN NEW ENGLAND IN CT CITY SKY/WX TMP DP RH WIND PRES REMARKS BRADLEY INTL MOCLDY 72 49 44 S14 30.20R HARTFORD MOCLDY 69 49 48 S8 30.22R DANBURY CLOUDY 68 48 48 S10 30.24S WTRBRY/OXFORD CLOUDY 66 48 52 S9 30.25S BRIDGEPORT CLOUDY 65 51 60 SW9 30.25R MERIDEN CLOUDY 68 50 52 S6 30.23S NEW HAVEN CLOUDY 64 50 60 VRB6 30.25S CHESTER FAIR 64 48 55 SW7 30.26S GROTON CLOUDY 59 49 69 W7 30.25S WILLIMANTIC MOCLDY 69 48 47 SW7 30.24R IN RI CITY SKY/WX TMP DP RH WIND PRES REMARKS PROVIDENCE MOCLDY 68 48 48 SW14 30.23R BLOCK ISLAND MOCLDY 55 45 67 SW15G22 30.27S WESTERLY MOCLDY 62 48 60 SW6 30.26S IN MA CITY SKY/WX TMP DP RH WIND PRES REMARKS BOSTON CLOUDY 73 42 32 SW18 30.17R WORCESTER MOCLDY 71 36 27 SW10 30.21R WESTFIELD NOT AVBL PROVINCETOWN PTCLDY 57 48 72 SW15 30.20R NANTUCKET PTCLDY 57 47 69 SW18 30.26S $$ ANZ330-335-338-340-345-350-353-355-250100- COASTAL MARINE OBSERVATIONS STATION/POSITION TIME SKY/WX TEMP WIND PRES VSBY WAVE AIR SEA DIR/SP/G HT/PER (UTC) (F) (DEG/KT/KT) (MB) (MI) (FT/S) NY HARB ENTRANCE 2350 60 55 200/ 19/ 23 1024.0 4/ 5 4S FIRE IS 2303 54 N/A 4/ 5 20S FIRE ISLAND 2350 59 55 210/ 17/ 21 1025.0 3/ 5 GREAT SOUTH BAY 2330 60 63 210/ 16/ 19 N/A 23SW MTP 2350 57 53 220/ 16/ 17 1024.9 3/ 5 HUDSON CANYON NOT AVBL KINGS POINT 2300 67 57 190/ 10/ 15 1023.2 CENTRAL LI SOUND 2300 60 53 210/ 14/ 17 N/A EASTERN LI SOUND 2300 57 210/ 8/ 12 N/A ROBBINS REEF 2300 69 170/ 11/ 12 1022.4 $$ >>>>>>>>>>>>>>>>>>>>>>>>>>>> KEY <<<<<<<<<<<<<<<<<<<<<<<<<<< > < > SKY/WX - SKY CONDITION/PRESENT WEATHER < > TMP - TEMPERATURE IN FAHRENHEIT < > DP - DEWPOINT IN FAHRENHEIT < > RH - RELATIVE HUMIDITY IN PERCENT < > WIND - DIRECTION AND SPEED IN MPH < > PRES - MEAN SEA LEVEL PRESSURE IN INCHES OF HG < > WCI - WIND CHILL INDEX < > VSB - VISIBILITY IN MILES < > HX - HEAT INDEX < > TC - TEMPERATURE IN CELSIUS < > VRB - VARIABLE WIND DIRECTION < > < >>>>>>>>>>>>>>>>>>>>>>>>>>>> KEY <<<<<<<<<<<<<<<<<<<<<<<<<<<

USA.gov is the U.S. government's official web portal to all federal, state and local government web resources and services.